N4MRV-1 Weather Reports


time (UTC)temp
F
wind
direction
speed
knots
gust
knots
rain 1hr
in
rain 24hr
in
rain mn
in
humidity
%
barometer
mb
20260903081516 74 0.0 0.0 0.00 0.00 0.00 93 1016.4
20260903080016 75 0.0 0.0 0.00 0.00 0.00 93 1016.6
20260903074516 75 0.0 0.0 0.00 0.00 0.00 93 1016.9
20260903073016 75 0.0 0.0 0.00 0.00 0.00 93 1016.9
20260903071516 75 0.0 0.0 0.00 0.00 0.00 93 1016.9
20260903070016 75 0.0 0.0 0.00 0.00 0.00 93 1016.9
20260903064516 76 0.0 0.0 0.00 0.00 0.00 93 1017.0
20260903063016 76 0.0 0.0 0.00 0.00 0.00 93 1017.2
20260903061516 76 0.0 0.0 0.00 0.00 0.00 93 1017.2
20260903060016 76 0.0 0.0 0.00 0.00 0.00 93 1017.1
20260903054516 76 0.0 0.0 0.00 0.00 0.00 93 1017.2
20260903053016 76 0.0 0.0 0.00 0.00 0.00 94 1017.3
20260903051516 77 0.0 0.0 0.00 0.00 0.00 94 1017.6
20260903050016 77 0.0 0.0 0.00 0.00 0.00 94 1017.9
20260903044516 76 0.0 0.0 0.00 0.00 0.00 93 1018.1
20260903043016 76 0.0 0.0 0.00 0.00 0.00 93 1017.9
20260903041516 76 0.0 0.0 0.00 0.00 0.00 92 1017.5
20260903040035 77 0.0 0.0 0.00 0.00 0.00 91 1017.2
20260903034516 77 0.0 0.0 0.00 0.00 0.00 90 1017.0
20260903033016 77 0.0 0.0 0.00 0.00 0.00 90 1017.0
20260903031516 77 0.0 0.0 0.00 0.00 0.00 90 1016.7
20260903030016 78 0.0 0.0 0.00 0.00 0.00 89 1016.7
20260903024516 78 0.0 0.0 0.00 0.00 0.00 89 1017.0
20260903023036 78 0.0 0.0 0.00 0.00 0.00 88 1017.1
20260903021516 79 0.0 0.0 0.00 0.00 0.00 88 1017.2
20260903020016 79 0.0 0.0 0.00 0.00 0.00 88 1017.6
20260903014516 80 0.0 0.0 0.00 0.00 0.00 87 1017.7
20260903013016 80 0.0 0.0 0.00 0.00 0.00 87 1017.4
20260903011516 80 0.0 0.0 0.00 0.00 0.00 85 1017.4
20260903010016 81 0.0 0.0 0.00 0.00 0.00 84 1017.5
20260903004516 81 0.0 0.0 0.00 0.00 0.00 84 1017.6
20260903003016 82 0.0 0.0 0.00 0.00 0.00 83 1017.2
20260903001536 82 0.0 0.0 0.00 0.00 0.00 82 1017.1
20260903000016 83 0.0 0.0 0.00 0.00 0.00 81 1017.1
20260902234516 83 0.0 1.7 0.00 0.00 0.00 81 1017.0
20260902233016 83 0.0 1.7 0.00 0.00 0.00 81 1017.0
20260902231516 83 180 0.9 1.7 0.00 0.00 0.00 80 1017.5
20260902230016 84 180 0.9 2.6 0.00 0.00 0.00 80 1017.6
20260902224516 84 0.0 2.6 0.00 0.00 0.00 80 1017.4
20260902223036 85 203 0.9 2.6 0.00 0.00 0.00 79 1017.8
20260902221516 85 0.0 2.6 0.00 0.00 0.00 77 1018.0
20260902220016 86 0.0 1.7 0.00 0.00 0.00 75 1017.6
20260902214536 86 203 0.9 3.5 0.00 0.00 0.00 73 1017.1
20260902213016 87 180 0.9 3.5 0.00 0.00 0.00 74 1017.5
20260902211516 87 180 0.9 5.2 0.00 0.00 0.00 71 1017.7
20260902210015 88 180 0.9 3.5 0.00 0.00 0.00 70 1017.6
20260902204515 89 135 0.9 3.5 0.00 0.00 0.00 71 1017.5
20260902203015 90 113 1.7 5.2 0.00 0.00 0.00 69 1018.1
20260902201515 91 0.0 2.6 0.00 0.00 0.00 66 1017.8
20260902200016 91 0.0 2.6 0.00 0.00 0.00 64 1017.9
20260902194535 91 0.0 3.5 0.00 0.00 0.00 64 1017.5
20260902193015 92 203 0.9 3.5 0.00 0.00 0.00 64 1017.2
20260902191515 92 23 0.9 2.6 0.00 0.00 0.00 63 1017.3
20260902190016 92 0.0 1.7 0.00 0.00 0.00 64 1017.5
20260902184515 92 180 0.9 2.6 0.00 0.00 0.00 62 1017.5
20260902183015 92 180 0.9 4.3 0.00 0.00 0.00 60 1017.7
20260902181555 92 270 0.9 3.5 0.00 0.00 0.00 62 1017.7
20260902180015 92 135 0.9 5.2 0.00 0.00 0.00 62 1017.9
20260902174518 92 270 0.9 5.2 0.00 0.00 0.00 61 1018.1
20260902173015 92 293 0.9 3.5 0.00 0.00 0.00 63 1018.0
20260902171515 92 270 0.9 2.6 0.00 0.00 0.00 62 1018.0
20260902170017 92 158 0.9 2.6 0.00 0.00 0.00 62 1018.0
20260902164517 92 158 0.9 2.6 0.00 0.00 0.00 60 1018.2
20260902163017 93 23 0.9 1.7 0.00 0.00 0.00 61 1018.1
20260902161517 93 293 0.9 2.6 0.00 0.00 0.00 59 1018.2
20260902160037 92 158 0.9 1.7 0.00 0.00 0.00 63 1018.3
20260902154517 92 158 0.9 2.6 0.00 0.00 0.00 64 1018.5
20260902153017 91 315 0.9 2.6 0.00 0.00 0.00 65 1018.4
20260902151517 89 158 0.9 3.5 0.00 0.00 0.00 68 1018.5
20260902150017 87 0.0 1.7 0.00 0.00 0.00 72 1018.5
20260902144517 85 0.0 1.7 0.00 0.00 0.00 76 1018.6
20260902143057 83 0.0 1.7 0.00 0.00 0.00 78 1018.6
20260902141517 82 180 0.9 3.5 0.00 0.00 0.00 79 1018.4
20260902140017 81 315 0.9 2.6 0.00 0.00 0.00 82 1018.3
20260902134537 80 0.0 1.7 0.00 0.00 0.00 85 1018.2
20260902133017 78 0.0 0.9 0.00 0.00 0.00 87 1018.2
20260902131517 77 0.0 0.9 0.00 0.00 0.00 88 1018.1
20260902130017 76 0.0 1.7 0.00 0.00 0.00 89 1018.0
20260902124517 76 0.0 2.6 0.00 0.00 0.00 91 1017.9
20260902123016 75 0.0 1.7 0.00 0.00 0.00 92 1017.8
20260902121517 75 0.0 1.7 0.00 0.00 0.00 92 1017.9
20260902120016 75 0.0 0.9 0.00 0.00 0.00 92 1018.0
20260902114516 75 0.0 0.0 0.00 0.00 0.00 91 1017.9
20260902113016 75 0.0 0.0 0.00 0.00 0.00 91 1017.9
20260902111516 75 0.0 0.0 0.00 0.00 0.00 91 1017.9
20260902110016 75 0.0 0.0 0.00 0.00 0.00 91 1017.8
20260902104536 75 0.0 0.0 0.00 0.00 0.00 92 1017.6
20260902103016 75 0.0 0.0 0.00 0.00 0.00 92 1017.6
20260902101516 75 0.0 0.9 0.00 0.00 0.00 92 1017.5
20260902100016 75 0.0 0.9 0.00 0.00 0.00 93 1017.3
20260902094516 75 0.0 0.0 0.00 0.00 0.00 93 1017.3
20260902093016 74 0.0 0.0 0.00 0.00 0.00 93 1017.1
20260902091516 74 0.0 0.9 0.00 0.00 0.00 93 1017.1
20260902090036 74 0.0 0.0 0.00 0.00 0.00 93 1017.2
20260902084516 74 0.0 0.9 0.00 0.00 0.00 92 1017.3
20260902083016 74 0.0 0.9 0.00 0.00 0.00 92 1017.3